Weather History for Atlantic City, NJ

Change the Weather History Date:

Sunday, December 9, 2012

  Actual Average Record
Temperature  
Mean Temperature 51 °F 39 °F  
Max Temperature 54 °F 48 °F 72 °F (1966)
Min Temperature 47 °F 30 °F 5 °F (1876)
Degree Days  
Heating Degree Days 14 26  
Month to date heating degree days 163 222  
Since 1 July heating degree days 1129 1129  
Cooling Degree Days 0 0  
Month to date cooling degree days 0 0  
Year to date cooling degree days 1218 1055  
Moisture  
Dew Point 48 °F    
Average Humidity 93    
Maximum Humidity 100    
Minimum Humidity 86    
Precipitation  
Precipitation 0.84 in 0.12 in 2.51 in (2009)
Month to date precipitation 2.59 1.10  
Year to date precipitation 44.04 39.16  
Snow  
Snow 0.00 in 0.10 in 0.60 in (1961)
Month to date snowfall 0.0 0.8  
Since 1 July snowfall 2.5 1.0  
Snow Depth 0.00 in    
Sea Level Pressure  
Sea Level Pressure 30.12 in    
Wind  
Wind Speed 7 mph (NE)    
Max Wind Speed 21 mph    
Max Gust Speed 25 mph    
Visibility 3 miles    
Events Fog , Rain    
T = Trace of Precipitation, MM = Missing Value Source: NWS Daily Summary

Daily Weather History Graph

Daily Weather History Graph

Search for Another Location

Airport:

Trip Planner

Search our weather history database for the weather conditions in past years. The results will help you decide how hot, cold, wet, or windy it might be!

Date:

Astronomy

Dec. 09, 2012 Rise Set
Actual Time 7:07 AM EST 4:34 PM EST
Civil Twilight 6:37 AM EST 5:04 PM EST
Nautical Twilight 6:03 AM EST 5:38 PM EST
Astronomical Twilight 5:30 AM EST 6:10 PM EST
Moon 2:38 AM EST (12/9) 1:39 PM EST (12/9)
Length of Visible Light 10h 27m
Length of Day
9h 27m
Waning Crescent, 19% of the Moon is Illuminated
Dec 9
Waning Crescent
Dec 13
New
Dec 20
First Quarter
Dec 28
Full
Jan 4
Last Quarter

Hourly Weather History & Observations

Time (EST) Temp. Windchill Dew Point Humidity Pressure Visibility Wind Dir Wind Speed Gust Speed Precip Events Conditions
12:36 AM 50.0 °F - 48.2 °F 94% 30.04 in 0.5 mi Calm Calm - N/A Fog Fog
12:54 AM 50.0 °F - 48.0 °F 93% 30.04 in 0.8 mi WSW 3.5 mph - N/A   Mist
1:54 AM 50.0 °F - 48.0 °F 93% 30.06 in 0.8 mi Calm Calm - N/A   Mist
2:06 AM 50.0 °F - 48.2 °F 94% 30.07 in 1.2 mi West 4.6 mph - N/A   Overcast
2:26 AM 50.0 °F - 48.2 °F 94% 30.06 in 0.5 mi Calm Calm - N/A Fog Fog
2:54 AM 50.0 °F - 48.9 °F 96% 30.07 in 0.2 mi Calm Calm - N/A Fog Fog
3:07 AM 50.0 °F - 48.2 °F 94% 30.07 in 0.5 mi Calm Calm - N/A Fog Fog
3:19 AM 50.0 °F - 48.2 °F 94% 30.08 in 1.5 mi Calm Calm - N/A   Overcast
3:44 AM 50.0 °F - 48.2 °F 94% 30.08 in 2.5 mi Calm Calm - N/A   Overcast
3:54 AM 50.0 °F - 48.0 °F 93% 30.09 in 1.2 mi Calm Calm - 0.00 in Rain Light Rain
4:03 AM 50.0 °F - 48.2 °F 94% 30.08 in 0.5 mi Calm Calm - 0.00 in Fog Fog
4:54 AM 50.0 °F - 48.9 °F 96% 30.10 in 0.2 mi Calm Calm - 0.00 in Fog Fog
5:08 AM 50.0 °F - 48.2 °F 94% 30.10 in 0.5 mi North 3.5 mph - N/A Fog Fog
5:17 AM 48.2 °F - 48.2 °F 100% 30.11 in 0.2 mi NNW 3.5 mph - 0.00 in Fog , Rain Light Rain
5:33 AM 48.2 °F - 48.2 °F 100% 30.10 in 0.5 mi NNE 3.5 mph - 0.00 in Fog Fog
5:54 AM 48.9 °F - 48.0 °F 97% 30.12 in 0.5 mi Calm Calm - 0.00 in Fog Fog
6:36 AM 48.2 °F - 48.2 °F 100% 30.14 in 1.5 mi North 4.6 mph - 0.01 in Rain Light Rain
6:41 AM 48.2 °F - 48.2 °F 100% 30.14 in 3.0 mi North 5.8 mph - 0.01 in Rain Light Rain
6:51 AM 48.2 °F - 48.2 °F 100% 30.15 in 1.0 mi North 5.8 mph - 0.01 in   Overcast
6:54 AM 48.9 °F - 48.0 °F 97% 30.15 in 2.0 mi North 5.8 mph - 0.01 in   Overcast
7:46 AM 48.2 °F - 48.2 °F 100% 30.16 in 2.0 mi NNE 6.9 mph - 0.01 in Rain Light Rain
7:54 AM 48.9 °F - 46.9 °F 93% 30.17 in 2.0 mi NNE 6.9 mph - 0.02 in Rain Light Rain
8:02 AM 48.2 °F - 46.4 °F 93% 30.17 in 4.0 mi NNE 5.8 mph - 0.00 in Rain Light Rain
8:11 AM 48.2 °F - 46.4 °F 93% 30.18 in 5.0 mi NNE 8.1 mph - 0.00 in   Overcast
8:54 AM 48.9 °F - 46.0 °F 90% 30.18 in 5.0 mi NNE 9.2 mph - 0.01 in Rain Light Rain
9:53 AM 48.9 °F - 46.0 °F 90% 30.22 in 4.0 mi North 6.9 mph - 0.03 in Rain Rain
10:02 AM 48.2 °F - 46.4 °F 93% 30.22 in 2.0 mi NE 6.9 mph - 0.04 in Rain Heavy Rain
10:19 AM 48.2 °F - 46.4 °F 93% 30.22 in 4.0 mi NNE 6.9 mph - 0.08 in Rain Light Rain
10:54 AM 48.9 °F - 46.0 °F 90% 30.20 in 2.0 mi NE 11.5 mph - 0.11 in Rain Rain
11:15 AM 48.2 °F - 46.4 °F 93% 30.20 in 1.2 mi NE 12.7 mph - 0.13 in Rain Heavy Rain
11:26 AM 48.2 °F - 46.4 °F 93% 30.18 in 1.5 mi East 19.6 mph 25.3 mph 0.26 in Rain Heavy Rain
11:37 AM 48.2 °F - 46.4 °F 93% 30.18 in 2.0 mi ENE 17.3 mph 21.9 mph 0.27 in Rain Light Rain
11:54 AM 48.0 °F - 45.0 °F 89% 30.18 in 2.0 mi ENE 15.0 mph 24.2 mph 0.27 in Rain Light Rain
12:04 PM 48.2 °F - 44.6 °F 87% 30.17 in 2.0 mi ENE 15.0 mph - 0.00 in Rain Light Rain
12:47 PM 48.2 °F - 46.4 °F 93% 30.16 in 2.0 mi ENE 13.8 mph 23.0 mph 0.00 in   Overcast
12:54 PM 48.0 °F - 45.0 °F 89% 30.17 in 2.0 mi NE 12.7 mph - 0.00 in   Overcast
1:03 PM 48.2 °F - 44.6 °F 87% 30.16 in 10.0 mi ENE 15.0 mph 23.0 mph N/A   Overcast
1:54 PM 46.9 °F - 44.1 °F 90% 30.15 in 10.0 mi ENE 13.8 mph - N/A   Overcast
2:54 PM 46.9 °F - 42.1 °F 83% 30.15 in 10.0 mi ENE 15.0 mph - N/A   Overcast
3:36 PM 46.4 °F 41.9 °F 44.6 °F 93% 30.16 in 10.0 mi ENE 9.2 mph - N/A   Overcast
3:54 PM 48.0 °F - 44.1 °F 86% 30.16 in 10.0 mi ENE 10.4 mph - N/A   Overcast
4:54 PM 48.0 °F - 45.0 °F 89% 30.14 in 10.0 mi ENE 11.5 mph - N/A   Overcast
5:44 PM 48.2 °F - 46.4 °F 93% 30.15 in 2.5 mi ENE 6.9 mph - 0.01 in Rain Light Rain
5:54 PM 48.9 °F - 46.9 °F 93% 30.14 in 3.0 mi ENE 8.1 mph - 0.01 in Rain Light Rain
6:54 PM 50.0 °F - 48.0 °F 93% 30.12 in 3.0 mi ENE 10.4 mph - 0.02 in   Overcast
7:04 PM 50.0 °F - 48.2 °F 94% 30.12 in 2.5 mi ENE 8.1 mph - N/A   Overcast
7:12 PM 50.0 °F - 48.2 °F 94% 30.11 in 3.0 mi ENE 11.5 mph - N/A   Overcast
7:26 PM 50.0 °F - 48.2 °F 94% 30.11 in 3.0 mi ENE 8.1 mph - N/A   Overcast
7:54 PM 50.0 °F - 48.9 °F 96% 30.10 in 4.0 mi ENE 4.6 mph - 0.01 in   Overcast
8:18 PM 50.0 °F - 48.2 °F 94% 30.08 in 2.5 mi ENE 5.8 mph - N/A   Overcast
8:40 PM 51.8 °F - 50.0 °F 94% 30.08 in 2.5 mi NE 4.6 mph - N/A   Overcast
8:54 PM 51.1 °F - 50.0 °F 96% 30.07 in 1.0 mi ESE 3.5 mph - N/A   Overcast
9:39 PM 51.8 °F - 48.2 °F 88% 30.05 in 0.8 mi SE 5.8 mph - 0.02 in Rain Rain
9:54 PM 52.0 °F - 51.1 °F 97% 30.05 in 1.0 mi South 3.5 mph - 0.03 in Rain Light Rain
10:01 PM 51.8 °F - 51.8 °F 100% 30.05 in 0.5 mi SSE 4.6 mph - 0.00 in Rain Rain
10:54 PM 53.1 °F - 52.0 °F 96% 30.03 in 2.5 mi South 5.8 mph - 0.11 in Rain Heavy Rain
11:15 PM 53.6 °F - 51.8 °F 94% 30.02 in 2.0 mi South 9.2 mph - 0.18 in Rain Rain
11:17 PM 53.6 °F - 51.8 °F 94% 30.02 in 3.0 mi South 8.1 mph - 0.18 in Rain Rain
11:54 PM 54.0 °F - 52.0 °F 93% 30.00 in 4.0 mi South 4.6 mph - 0.21 in   Overcast